Regional Weather Roundup
Issued by NWS

Home | Current Version | Previous Version | Text Only | Print | Product List | Glossary On
Versions: 1 2 3 4 5 6 7 8 9 10 11 12 13 14 15 16 17 18 19 20 21 22 23 24 25 26 27 28 29 30 31 32 33 34 35 36 37 38 39 40 41 42 43 44 45 46 47 48 49 50
000
ASUS43 KTOP 291459
RWRKS

WEATHER ROUNDUP FOR KANSAS
NATIONAL WEATHER SERVICE GOODLAND KS
1000 AM CDT SAT AUG 29 2015

NOTE:  "FAIR" INDICATES FEW OR NO CLOUDS BELOW 12,000 FEET WITH NO
SIGNIFICANT WEATHER AND/OR OBSTRUCTIONS TO VISIBILITY.

KSZ001>006-013>018-027>032-041>047-291600-
NORTHWEST KANSAS

CITY           SKY/WX    TMP DP  RH WIND       PRES   REMARKS
GOODLAND       SUNNY     72  58  61 W6        30.21S
HAYS           SUNNY     72  57  60 N16       30.11F
HILL CITY      SUNNY     73  64  73 NW6       30.14S
RUSSELL        SUNNY     67  62  84 NW16      30.09S
$$

KSZ061>065-074>080-084>089-291600-
SOUTHWEST KANSAS

CITY           SKY/WX    TMP DP  RH WIND       PRES   REMARKS
DODGE CITY     SUNNY     69  64  84 NW7       30.14R
ELKHART          N/A     69  61  76 N5          N/A
GARDEN CITY    SUNNY     69  62  78 NW5       30.16R
GREAT BEND     SUNNY     70  59  68 N10G17    30.09S
LIBERAL        SUNNY     72  63  73 N9        30.17R
PRATT          SUNNY     70  61  73 CALM      30.10S
$$

KSZ066>073-081>083-090>101-291600-
SOUTHEAST KANSAS

CITY           SKY/WX    TMP DP  RH WIND       PRES   REMARKS
CHANUTE        MOSUNNY   73  64  73 N10       30.02R
COFFEYVILLE    CLOUDY    71  67  87 CALM      30.00R
HUTCHINSON     CLOUDY    68  61  78 N10       30.07R
NEWTON         CLOUDY    66  57  72 N12       30.08R
PARSONS        CLOUDY    72  69  90 NE5       30.02S
WICHITA INTL   MOSUNNY   73  63  70 N13       30.05R
WICHITA JABRA  CLOUDY    71  64  78 N8        30.05R
$$

KSZ007>012-019>026-033>040-048>060-102>105-291600-
NORTHEAST KANSAS

CITY           SKY/WX    TMP DP  RH WIND       PRES   REMARKS
CONCORDIA      CLOUDY    62  60  93 N12       30.08S
EMPORIA        CLOUDY    68  63  84 VRB5      30.04R
LAWRENCE       CLOUDY    71  64  78 N5        30.01S
MANHATTAN      CLOUDY    66  62  87 N8        30.05R
OLATHE IND     CLOUDY    69  66  90 N6        30.02R
OLATHE EXE     CLOUDY    69  66  90 N8        30.01R
SALINA         PTSUNNY   68  60  75 N14       30.07R
TOPEKA BILLARD CLOUDY    67  65  93 N7        30.02S
TOPEKA FORBES  CLOUDY    69  63  81 N7        30.02S
$$



USA.gov is the U.S. government's official web portal to all federal, state and local government web resources and services.